Weather History for Zanesville, OH

Change the Weather History Date:

Friday, February 1, 2013

  Actual Average Record
Temperature  
Mean Temperature 15 °F 30 °F  
Max Temperature 22 °F 38 °F 66 °F (1989)
Min Temperature 8 °F 21 °F -7 °F (2004)
Degree Days  
Heating Degree Days 50 35  
Month to date heating degree days 50 35  
Since 1 July heating degree days 3188 3302  
Cooling Degree Days 0 0  
Month to date cooling degree days 0 0  
Year to date cooling degree days 0 0  
Moisture  
Dew Point 6 °F    
Average Humidity 71    
Maximum Humidity 84    
Minimum Humidity 58    
Precipitation  
Precipitation T in 0.08 in 1.30 in (1981)
Month to date precipitation T 0.08  
Year to date precipitation 2.12 2.74  
Sea Level Pressure  
Sea Level Pressure 30.17 in    
Wind  
Wind Speed 11 mph (West)    
Max Wind Speed 22 mph    
Max Gust Speed 31 mph    
Visibility 7 miles    
Events Fog , Snow    
T = Trace of Precipitation, MM = Missing Value Source: NWS Daily Summary

Daily Weather History Graph

Daily Weather History Graph

Search for Another Location

Airport:

Trip Planner

Search our weather history database for the weather conditions in past years. The results will help you decide how hot, cold, wet, or windy it might be!

Date:

Astronomy

Feb. 01, 2013 Rise Set
Actual Time 7:35 AM EST 5:47 PM EST
Civil Twilight 7:07 AM EST 6:15 PM EST
Nautical Twilight 6:34 AM EST 6:48 PM EST
Astronomical Twilight 6:03 AM EST 7:19 PM EST
Moon 11:52 PM EST (2/1) 10:08 AM EST (2/1)
Length of Visible Light 11h 08m
Length of Day
10h 11m
Waning Gibbous, 70% of the Moon is Illuminated
Feb 1
Waning Gibbous
Feb 3
Last Quarter
Feb 10
New
Feb 17
First Quarter
Feb 25
Full

Hourly Weather History & Observations

Time (EST) Temp. Windchill Dew Point Humidity Pressure Visibility Wind Dir Wind Speed Gust Speed Precip Events Conditions
12:08 AM 21.2 °F 9.5 °F 15.8 °F 80% 29.87 in 5.0 mi WNW 11.5 mph 20.7 mph 0.00 in Snow Light Snow
12:19 AM 21.2 °F 9.5 °F 15.8 °F 80% 29.87 in 2.5 mi WNW 11.5 mph - 0.00 in Snow Light Snow
12:31 AM 19.4 °F 7.9 °F 15.8 °F 86% 29.88 in 1.8 mi WNW 10.4 mph - 0.00 in Snow Light Snow
12:45 AM 19.4 °F 7.2 °F 15.8 °F 86% 29.89 in 1.0 mi NW 11.5 mph - 0.00 in Snow Light Snow
12:53 AM 19.9 °F 6.2 °F 16.0 °F 85% 29.93 in 1.0 mi WNW 15.0 mph 20.7 mph 0.00 in Snow Light Snow
12:58 AM 19.4 °F 6.6 °F 14.0 °F 80% 29.89 in 2.0 mi WNW 12.7 mph 20.7 mph 0.00 in Snow Light Snow
1:07 AM 19.4 °F 7.9 °F 14.0 °F 80% 29.89 in 3.0 mi WNW 10.4 mph 20.7 mph 0.00 in Snow Light Snow
1:21 AM 19.4 °F 6.6 °F 14.0 °F 80% 29.90 in 1.8 mi NW 12.7 mph - 0.00 in Snow Light Snow
1:37 AM 17.6 °F 2.2 °F 12.2 °F 79% 29.91 in 1.5 mi WNW 17.3 mph 27.6 mph 0.00 in Snow Light Snow
2:08 AM 17.6 °F 2.2 °F 10.4 °F 73% 29.93 in 3.0 mi WNW 17.3 mph 24.2 mph 0.00 in Snow Light Snow
2:17 AM 17.6 °F 3.7 °F 10.4 °F 73% 29.94 in 2.0 mi WNW 13.8 mph - 0.00 in Snow Light Snow
2:20 AM 17.6 °F 1.3 °F 12.2 °F 79% 29.94 in 1.8 mi WNW 19.6 mph 24.2 mph 0.00 in Snow Light Snow
2:30 AM 17.6 °F 3.2 °F 12.2 °F 79% 29.95 in 1.0 mi WNW 15.0 mph 23.0 mph 0.00 in Snow Light Snow
2:36 AM 15.8 °F 0.9 °F 12.2 °F 86% 29.96 in 0.5 mi NW 15.0 mph 25.3 mph 0.00 in Fog , Snow Snow
2:47 AM 15.8 °F 0.9 °F 10.4 °F 79% 29.97 in 1.0 mi NW 15.0 mph 21.9 mph 0.00 in Snow Light Snow
2:53 AM 16.0 °F 2.3 °F 10.9 °F 81% 30.01 in 1.8 mi WNW 12.7 mph 21.9 mph 0.00 in Snow Light Snow
3:00 AM 15.8 °F 0.3 °F 8.6 °F 73% 29.98 in 3.0 mi WNW 16.1 mph 23.0 mph 0.00 in Snow Light Snow
3:05 AM 15.8 °F 0.3 °F 6.8 °F 68% 29.98 in 7.0 mi WNW 16.1 mph - 0.00 in   Mostly Cloudy
4:53 AM 14.0 °F -0.2 °F 5.0 °F 67% 30.10 in 10.0 mi West 12.7 mph 20.7 mph N/A   Overcast
5:49 AM 12.2 °F -3.7 °F 3.2 °F 67% 30.11 in 10.0 mi West 15.0 mph 21.9 mph N/A   Overcast
5:53 AM 12.0 °F -2.0 °F 3.9 °F 70% 30.15 in 10.0 mi West 11.5 mph 21.9 mph N/A   Overcast
6:53 AM 10.9 °F -4.1 °F 1.9 °F 67% 30.20 in 10.0 mi West 12.7 mph 18.4 mph N/A   Overcast
7:53 AM 10.0 °F -7.1 °F 1.9 °F 70% 30.25 in 10.0 mi West 16.1 mph 23.0 mph N/A   Overcast
8:53 AM 9.0 °F -5.9 °F -0.0 °F 67% 30.29 in 10.0 mi West 11.5 mph 20.7 mph N/A   Overcast
9:53 AM 9.0 °F -6.6 °F -0.0 °F 67% 30.31 in 10.0 mi West 12.7 mph 20.7 mph N/A   Overcast
10:07 AM 10.4 °F -3.3 °F 1.4 °F 67% 30.27 in 10.0 mi WSW 10.4 mph 21.9 mph N/A   Overcast
10:53 AM 10.0 °F -4.5 °F -0.0 °F 64% 30.34 in 10.0 mi West 11.5 mph 19.6 mph N/A   Overcast
12:20 PM 12.2 °F -2.5 °F 1.4 °F 62% 30.31 in 10.0 mi West 12.7 mph 19.6 mph N/A   Scattered Clouds
12:34 PM 14.0 °F -0.8 °F 1.4 °F 57% 30.31 in 10.0 mi West 13.8 mph 20.7 mph N/A   Mostly Cloudy
12:45 PM 12.2 °F -3.7 °F 1.4 °F 62% 30.31 in 10.0 mi West 15.0 mph 20.7 mph N/A   Scattered Clouds
12:53 PM 14.0 °F -1.4 °F 1.9 °F 59% 30.35 in 10.0 mi West 15.0 mph - N/A   Mostly Cloudy
1:03 PM 12.2 °F -3.1 °F 1.4 °F 62% 30.31 in 10.0 mi West 13.8 mph - N/A   Partly Cloudy
1:53 PM 14.0 °F -0.8 °F 1.9 °F 59% 30.35 in 10.0 mi West 13.8 mph - N/A   Mostly Cloudy
2:06 PM 14.0 °F 1.2 °F 3.2 °F 62% 30.31 in 10.0 mi SW 10.4 mph 18.4 mph N/A   Mostly Cloudy
2:53 PM 14.0 °F 1.2 °F 3.0 °F 62% 30.36 in 10.0 mi WSW 10.4 mph - N/A   Mostly Cloudy
3:13 PM 14.0 °F 0.5 °F 3.2 °F 62% 30.31 in 10.0 mi West 11.5 mph - N/A   Mostly Cloudy
3:32 PM 14.0 °F 0.5 °F 3.2 °F 62% 30.32 in 10.0 mi WSW 11.5 mph 20.7 mph N/A   Overcast
3:50 PM 14.0 °F 0.5 °F 1.4 °F 57% 30.32 in 10.0 mi West 11.5 mph 19.6 mph N/A   Mostly Cloudy
3:53 PM 14.0 °F -0.8 °F 1.9 °F 59% 30.38 in 10.0 mi West 13.8 mph 19.6 mph N/A   Mostly Cloudy
4:53 PM 12.9 °F -1.6 °F 1.0 °F 59% 30.38 in 10.0 mi West 12.7 mph 19.6 mph N/A   Partly Cloudy
5:53 PM 12.9 °F 0.7 °F 1.9 °F 62% 30.38 in 10.0 mi WSW 9.2 mph 16.1 mph N/A   Mostly Cloudy
6:53 PM 12.9 °F 0.7 °F 1.9 °F 62% 30.40 in 10.0 mi WSW 9.2 mph - N/A   Overcast
7:53 PM 12.9 °F -0.2 °F 3.0 °F 65% 30.40 in 10.0 mi WSW 10.4 mph - N/A   Overcast
8:39 PM 12.2 °F 1.7 °F 3.2 °F 67% 30.34 in 10.0 mi WSW 6.9 mph - N/A   Mostly Cloudy
8:53 PM 12.9 °F 3.8 °F 1.9 °F 62% 30.40 in 10.0 mi WSW 5.8 mph - N/A   Scattered Clouds
9:53 PM 10.0 °F 1.8 °F 1.9 °F 70% 30.39 in 10.0 mi South 4.6 mph - N/A   Clear
10:53 PM 9.0 °F - 1.9 °F 73% 30.39 in 10.0 mi Calm Calm - N/A   Clear
11:53 PM 8.1 °F - 3.0 °F 80% 30.38 in 10.0 mi Calm Calm - N/A   Clear